QPF
0.01 0.01 0.01 0.01 0.00 0.01 0.01 0.01 0.01 0.01 0.01 0.02 0.01 0.01 0.01 0.01 0.02 0.02 0.01 0.01 0.02 0.03 0.04 0.04 0.03 0.04 0.04 0.05 0.06 0.06 0.06 0.06 0.04 0.03 0.02 0.01 0.00 0.00 0.00 0.00 0.00 0.00 0.00 0.01
0.01 0.02 0.01 0.01 0.01 0.01 0.02 0.02 0.02 0.01 0.01 0.01 0.01 0.01 0.01 0.00 0.01 0.01 0.01 0.01 0.03 0.05 0.05 0.05 0.04 0.05 0.07 0.08 0.07 0.07 0.06 0.05 0.03 0.02 0.01 0.01 0.00 0.00 0.00 0.00 0.00 0.01 0.00 0.00
0.01 0.02 0.02 0.01 0.02 0.02 0.03 0.02 0.02 0.01 0.01 0.01 0.01 0.01 0.01 0.00 0.00 0.00 0.01 0.02 0.02 0.02 0.04 0.04 0.05 0.06 0.07 0.08 0.05 0.04 0.03 0.02 0.02 0.02 0.01 0.01 0.00 0.00 0.00 0.00 0.00 0.01 0.00 0.00
0.01 0.01 0.01 0.02 0.02 0.02 0.03 0.03 0.02 0.01 0.01 0.01 0.00 0.00 0.01 0.00 0.00 0.01 0.00 0.00 0.00 0.01 0.02 0.05 0.04 0.05 0.04 0.05 0.03 0.02 0.01 0.01 0.01 0.02 0.01 0.00 0.00 0.00 0.00 0.00 0.00 0.01 0.01 0.00
0.01 0.01 0.01 0.01 0.02 0.02 0.02 0.02 0.01 0.01 0.01 0.00 0.00 0.00 0.00 0.00 0.00 0.00 0.00 0.00 0.01 0.01 0.02 0.04 0.02 0.02 0.02 0.02 0.02 0.01 0.01 0.01 0.01 0.01 0.02 0.01 0.01 0.00 0.00 0.00 0.00 0.01 0.01 0.01
0.00 0.01 0.01 0.01 0.01 0.01 0.01 0.01 0.01 0.00 0.00 0.00 0.00 0.00 0.00 0.00 0.00 0.00 0.00 0.00 0.00 0.01 0.01 0.01 0.02 0.01 0.01 0.01 0.01 0.01 0.00 0.00 0.00 0.00 0.01 0.01 0.01 0.01 0.01 0.00 0.00 0.00 0.01 0.01
0.00 0.01 0.01 0.01 0.01 0.01 0.01 0.01 0.01 0.01 0.00 0.00 0.00 0.00 0.00 0.00 0.00 0.00 0.00 0.00 0.00 0.00 0.00 0.00 0.01 0.00 0.00 0.01 0.01 0.01 0.00 0.00 0.01 0.01 0.01 0.01 0.01 0.01 0.01 0.00 0.00 0.00 0.01 0.01
0.00 0.01 0.01 0.01 0.01 0.01 0.01 0.01 0.01 0.01 0.00 0.00 0.00 0.00 0.00 0.00 0.00 0.00 0.00 0.00 0.00 0.00 0.00 0.00 0.00 0.00 0.00 0.00 0.01 0.01 0.00 0.00 0.00 0.00 0.00 0.01 0.01 0.01 0.01 0.01 0.00 0.01 0.01 0.01
0.00 0.00 0.01 0.01 0.01 0.01 0.01 0.01 0.00 0.00 0.00 0.00 0.00 0.00 0.00 0.00 0.00 0.01 0.00 0.00 0.00 0.00 0.00 0.00 0.01 0.01 0.00 0.00 0.01 0.01 0.00 0.00 0.00 0.00 0.00 0.00 0.01 0.01 0.00 0.00 0.01 0.01 0.01 0.01
0.01 0.01 0.01 0.01 0.01 0.00 0.00 0.01 0.01 0.01 0.00 0.00 0.00 0.00 0.00 0.00 0.00 0.00 0.00 0.00 0.00 0.00 0.00 0.00 0.01 0.00 0.00 0.00 0.01 0.01 0.01 0.01 0.01 0.00 0.00 0.01 0.01 0.01 0.01 0.01 0.00 0.00 0.00 0.01
0.01 0.01 0.01 0.01 0.01 0.01 0.01 0.01 0.01 0.01 0.00 0.00 0.00 0.00 0.00 0.00 0.00 0.00 0.00 0.00 0.00 0.00 0.00 0.00 0.00 0.00 0.00 0.00 0.00 0.01 0.01 0.01 0.01 0.01 0.01 0.01 0.01 0.01 0.01 0.01 0.00 0.00 0.01 0.01
0.01 0.01 0.00 0.00 0.01 0.02 0.01 0.01 0.01 0.00 0.00 0.00 0.00 0.00 0.00 0.00 0.00 0.00 0.00 0.00 0.00 0.00 0.00 0.00 0.00 0.00 0.01 0.00 0.00 0.00 0.01 0.01 0.01 0.01 0.01 0.01 0.01 0.01 0.02 0.01 0.00 0.00 0.01 0.01
0.01 0.01 0.01 0.00 0.01 0.01 0.01 0.00 0.00 0.00 0.00 0.00 0.00 0.00 0.00 0.00 0.00 0.00 0.00 0.00 0.00 0.00 0.00 0.00 0.00 0.00 0.01 0.01 0.01 0.00 0.00 0.01 0.01 0.01 0.00 0.01 0.01 0.01 0.02 0.02 0.02 0.02 0.01 0.01
0.01 0.01 0.00 0.00 0.00 0.00 0.00 0.00 0.00 0.01 0.00 0.00 0.00 0.00 0.00 0.00 0.00 0.00 0.00 0.00 0.00 0.00 0.00 0.00 0.00 0.00 0.00 0.01 0.01 0.01 0.00 0.00 0.01 0.01 0.00 0.00 0.01 0.01 0.02 0.04 0.05 0.06 0.06 0.04
0.00 0.01 0.00 0.01 0.00 0.00 0.01 0.01 0.00 0.01 0.01 0.00 0.00 0.00 0.00 0.00 0.00 0.00 0.00 0.00 0.00 0.00 0.00 0.00 0.00 0.01 0.00 0.00 0.01 0.01 0.01 0.00 0.00 0.01 0.00 0.00 0.00 0.01 0.01 0.02 0.03 0.04 0.05 0.05
0.00 0.00 0.00 0.00 0.01 0.01 0.01 0.02 0.02 0.01 0.01 0.00 0.00 0.00 0.00 0.00 0.00 0.00 0.00 0.00 0.00 0.00 0.00 0.00 0.00 0.00 0.01 0.01 0.01 0.01 0.01 0.01 0.01 0.01 0.01 0.01 0.01 0.01 0.01 0.02 0.02 0.02 0.02 0.02
0.00 0.00 0.01 0.00 0.00 0.01 0.01 0.01 0.03 0.02 0.01 0.00 0.00 0.00 0.00 0.00 0.00 0.00 0.00 0.00 0.00 0.00 0.00 0.00 0.00 0.00 0.01 0.01 0.01 0.01 0.01 0.01 0.02 0.02 0.02 0.02 0.02 0.02 0.02 0.03 0.02 0.01 0.01 0.00
0.00 0.00 0.01 0.01 0.01 0.01 0.01 0.01 0.01 0.01 0.01 0.00 0.01 0.00 0.00 0.00 0.00 0.00 0.00 0.00 0.00 0.00 0.00 0.00 0.00 0.00 0.00 0.01 0.02 0.02 0.01 0.01 0.01 0.02 0.03 0.03 0.02 0.02 0.02 0.02 0.01 0.01 0.01 0.00
0.00 0.00 0.01 0.01 0.01 0.01 0.00 0.00 0.01 0.01 0.00 0.00 0.00 0.00 0.00 0.00 0.00 0.00 0.00 0.00 0.00 0.01 0.00 0.00 0.00 0.00 0.00 0.00 0.01 0.02 0.02 0.01 0.01 0.01 0.01 0.01 0.01 0.01 0.01 0.01 0.01 0.01 0.01 0.01
0.00 0.01 0.01 0.01 0.01 0.01 0.00 0.00 0.00 0.00 0.00 0.00 0.00 0.00 0.00 0.00 0.00 0.00 0.00 0.00 0.01 0.01 0.01 0.01 0.00 0.00 0.00 0.00 0.00 0.01 0.01 0.02 0.01 0.01 0.01 0.01 0.01 0.01 0.01 0.01 0.01 0.01 0.01 0.01
0.00 0.01 0.01 0.01 0.01 0.01 0.00 0.01 0.00 0.00 0.01 0.01 0.00 0.00 0.00 0.00 0.00 0.00 0.00 0.00 0.01 0.01 0.01 0.01 0.00 0.00 0.00 0.00 0.00 0.00 0.00 0.01 0.01 0.01 0.01 0.01 0.01 0.01 0.01 0.01 0.01 0.01 0.01 0.01
0.01 0.01 0.01 0.01 0.02 0.02 0.01 0.01 0.01 0.01 0.01 0.01 0.00 0.00 0.00 0.00 0.00 0.00 0.00 0.00 0.00 0.01 0.01 0.01 0.00 0.00 0.01 0.00 0.01 0.00 0.00 0.01 0.01 0.01 0.01 0.01 0.01 0.01 0.01 0.01 0.01 0.01 0.01 0.01
0.02 0.03 0.02 0.02 0.03 0.03 0.02 0.02 0.01 0.01 0.01 0.01 0.00 0.00 0.00 0.00 0.00 0.00 0.00 0.00 0.00 0.01 0.01 0.01 0.01 0.00 0.01 0.01 0.00 0.00 0.01 0.01 0.01 0.01 0.01 0.01 0.01 0.01 0.01 0.00 0.01 0.01 0.01 0.01
0.01 0.02 0.03 0.04 0.03 0.02 0.02 0.02 0.01 0.00 0.00 0.01 0.00 0.00 0.00 0.00 0.00 0.00 0.00 0.00 0.00 0.00 0.01 0.01 0.01 0.01 0.01 0.01 0.00 0.00 0.01 0.01 0.01 0.01 0.01 0.01 0.01 0.01 0.01 0.00 0.00 0.00 0.01 0.01
0.01 0.01 0.02 0.03 0.02 0.02 0.01 0.01 0.01 0.00 0.00 0.01 0.01 0.00 0.00 0.00 0.00 0.00 0.00 0.00 0.00 0.00 0.00 0.01 0.01 0.01 0.01 0.01 0.01 0.01 0.01 0.01 0.01 0.00 0.01 0.01 0.01 0.01 0.01 0.01 0.00 0.00 0.00 0.01
0.00 0.00 0.01 0.01 0.01 0.01 0.01 0.00 0.00 0.01 0.00 0.01 0.01 0.01 0.00 0.00 0.00 0.00 0.00 0.00 0.00 0.00 0.00 0.01 0.01 0.01 0.01 0.01 0.01 0.01 0.01 0.01 0.00 0.00 0.01 0.01 0.01 0.01 0.01 0.00 0.00 0.00 0.01 0.01
MSLP
1014.96 1015.76 1016.37 1016.78 1017.03 1017.16 1017.23 1017.29 1017.37 1017.46 1017.57 1017.66 1017.70 1017.68 1017.60 1017.47 1017.30 1017.13 1016.97 1016.85 1016.74 1016.66 1016.59 1016.51 1016.43 1016.37 1016.33 1016.34 1016.42 1016.60 1016.85 1017.17 1017.52 1017.86 1018.15 1018.36 1018.48 1018.50 1018.45 1018.37 1018.27 1018.20 1018.17 1018.19
1015.41 1016.06 1016.52 1016.80 1016.95 1017.03 1017.10 1017.21 1017.36 1017.53 1017.70 1017.82 1017.86 1017.81 1017.67 1017.47 1017.24 1017.03 1016.87 1016.77 1016.71 1016.70 1016.69 1016.66 1016.61 1016.54 1016.49 1016.48 1016.54 1016.71 1017.00 1017.37 1017.80 1018.23 1018.61 1018.90 1019.08 1019.13 1019.07 1018.95 1018.81 1018.69 1018.61 1018.59
1015.62 1016.11 1016.42 1016.59 1016.68 1016.76 1016.89 1017.08 1017.34 1017.61 1017.85 1017.99 1018.01 1017.88 1017.65 1017.34 1017.02 1016.75 1016.58 1016.50 1016.51 1016.59 1016.67 1016.73 1016.73 1016.70 1016.64 1016.62 1016.66 1016.81 1017.10 1017.50 1017.99 1018.49 1018.95 1019.32 1019.56 1019.65 1019.61 1019.49 1019.33 1019.18 1019.08 1019.05
1015.61 1015.94 1016.11 1016.21 1016.28 1016.42 1016.65 1016.99 1017.39 1017.77 1018.08 1018.23 1018.19 1017.96 1017.58 1017.13 1016.68 1016.32 1016.10 1016.04 1016.12 1016.29 1016.49 1016.65 1016.75 1016.78 1016.76 1016.73 1016.76 1016.89 1017.17 1017.57 1018.07 1018.62 1019.14 1019.57 1019.87 1020.02 1020.03 1019.93 1019.79 1019.65 1019.55 1019.51
1015.48 1015.65 1015.71 1015.76 1015.86 1016.10 1016.48 1016.98 1017.54 1018.05 1018.42 1018.56 1018.44 1018.07 1017.52 1016.88 1016.26 1015.78 1015.49 1015.42 1015.55 1015.81 1016.13 1016.43 1016.65 1016.76 1016.80 1016.80 1016.83 1016.95 1017.20 1017.59 1018.09 1018.65 1019.20 1019.68 1020.03 1020.24 1020.30 1020.26 1020.15 1020.04 1019.97 1019.95
1015.33 1015.34 1015.32 1015.35 1015.52 1015.87 1016.42 1017.10 1017.81 1018.44 1018.85 1018.97 1018.75 1018.23 1017.48 1016.63 1015.82 1015.18 1014.80 1014.69 1014.85 1015.19 1015.63 1016.06 1016.41 1016.65 1016.77 1016.83 1016.88 1016.99 1017.21 1017.57 1018.05 1018.60 1019.16 1019.67 1020.07 1020.33 1020.45 1020.46 1020.41 1020.34 1020.31 1020.33
1015.27 1015.15 1015.05 1015.08 1015.32 1015.79 1016.49 1017.33 1018.17 1018.89 1019.33 1019.40 1019.07 1018.39 1017.44 1016.38 1015.38 1014.58 1014.09 1013.93 1014.09 1014.50 1015.04 1015.60 1016.09 1016.45 1016.68 1016.81 1016.90 1017.02 1017.24 1017.57 1018.01 1018.54 1019.09 1019.60 1020.02 1020.33 1020.50 1020.57 1020.58 1020.57 1020.58 1020.65
1015.38 1015.15 1015.00 1015.03 1015.31 1015.88 1016.68 1017.62 1018.56 1019.31 1019.75 1019.76 1019.33 1018.49 1017.37 1016.13 1014.96 1014.02 1013.42 1013.21 1013.37 1013.81 1014.43 1015.10 1015.72 1016.20 1016.54 1016.76 1016.91 1017.06 1017.27 1017.58 1018.00 1018.49 1019.02 1019.53 1019.96 1020.29 1020.51 1020.63 1020.69 1020.74 1020.81 1020.92
1015.72 1015.40 1015.20 1015.21 1015.52 1016.11 1016.96 1017.93 1018.88 1019.62 1020.01 1019.95 1019.42 1018.46 1017.22 1015.85 1014.56 1013.52 1012.85 1012.59 1012.73 1013.20 1013.88 1014.63 1015.34 1015.93 1016.38 1016.68 1016.90 1017.09 1017.31 1017.62 1018.01 1018.48 1018.99 1019.48 1019.93 1020.28 1020.53 1020.70 1020.81 1020.90 1021.02 1021.18
1016.27 1015.89 1015.64 1015.62 1015.89 1016.46 1017.26 1018.19 1019.06 1019.73 1020.03 1019.88 1019.27 1018.24 1016.93 1015.50 1014.17 1013.09 1012.38 1012.10 1012.24 1012.71 1013.42 1014.22 1014.99 1015.66 1016.19 1016.57 1016.86 1017.10 1017.35 1017.66 1018.05 1018.50 1018.99 1019.49 1019.93 1020.31 1020.60 1020.81 1020.96 1021.10 1021.26 1021.45
1016.98 1016.56 1016.27 1016.19 1016.39 1016.85 1017.53 1018.32 1019.05 1019.56 1019.74 1019.50 1018.82 1017.77 1016.46 1015.05 1013.75 1012.70 1012.01 1011.74 1011.88 1012.35 1013.06 1013.87 1014.68 1015.39 1015.97 1016.42 1016.76 1017.05 1017.34 1017.67 1018.07 1018.53 1019.03 1019.53 1019.99 1020.40 1020.72 1020.98 1021.18 1021.36 1021.56 1021.78
1017.76 1017.32 1016.98 1016.83 1016.91 1017.22 1017.72 1018.29 1018.80 1019.13 1019.16 1018.81 1018.09 1017.05 1015.80 1014.49 1013.28 1012.31 1011.70 1011.47 1011.62 1012.09 1012.78 1013.57 1014.37 1015.09 1015.70 1016.18 1016.57 1016.91 1017.25 1017.62 1018.05 1018.53 1019.05 1019.58 1020.08 1020.53 1020.90 1021.21 1021.47 1021.70 1021.93 1022.18
1018.51 1018.07 1017.69 1017.45 1017.39 1017.51 1017.77 1018.09 1018.35 1018.45 1018.31 1017.86 1017.12 1016.12 1014.97 1013.79 1012.73 1011.89 1011.38 1011.22 1011.39 1011.85 1012.51 1013.26 1014.03 1014.73 1015.34 1015.85 1016.29 1016.68 1017.07 1017.49 1017.96 1018.49 1019.05 1019.62 1020.17 1020.68 1021.12 1021.49 1021.81 1022.09 1022.36 1022.64
1019.14 1018.70 1018.29 1017.96 1017.75 1017.67 1017.68 1017.73 1017.73 1017.60 1017.28 1016.74 1015.97 1015.03 1014.00 1012.98 1012.08 1011.40 1011.00 1010.91 1011.11 1011.56 1012.18 1012.89 1013.61 1014.29 1014.89 1015.42 1015.90 1016.34 1016.79 1017.28 1017.81 1018.39 1019.01 1019.64 1020.25 1020.82 1021.34 1021.79 1022.18 1022.53 1022.85 1023.15
1019.58 1019.14 1018.70 1018.29 1017.95 1017.68 1017.45 1017.25 1017.00 1016.66 1016.18 1015.54 1014.76 1013.88 1012.96 1012.08 1011.34 1010.80 1010.51 1010.49 1010.71 1011.14 1011.72 1012.39 1013.07 1013.73 1014.34 1014.90 1015.43 1015.94 1016.46 1017.01 1017.61 1018.26 1018.94 1019.63 1020.31 1020.96 1021.55 1022.09 1022.56 1022.97 1023.33 1023.67
1019.81 1019.37 1018.89 1018.42 1017.96 1017.53 1017.12 1016.70 1016.24 1015.71 1015.09 1014.38 1013.58 1012.74 1011.91 1011.15 1010.53 1010.10 1009.89 1009.91 1010.15 1010.56 1011.11 1011.75 1012.41 1013.07 1013.71 1014.32 1014.92 1015.51 1016.11 1016.75 1017.42 1018.13 1018.87 1019.62 1020.37 1021.08 1021.75 1022.36 1022.90 1023.38 1023.80 1024.17
1019.85 1019.39 1018.88 1018.35 1017.81 1017.26 1016.70 1016.13 1015.51 1014.85 1014.12 1013.34 1012.52 1011.70 1010.92 1010.23 1009.69 1009.31 1009.15 1009.18 1009.41 1009.82 1010.35 1010.97 1011.65 1012.34 1013.04 1013.73 1014.41 1015.10 1015.80 1016.52 1017.27 1018.04 1018.83 1019.63 1020.43 1021.20 1021.92 1022.60 1023.20 1023.74 1024.21 1024.61
1019.74 1019.24 1018.69 1018.12 1017.52 1016.90 1016.26 1015.59 1014.88 1014.13 1013.33 1012.51 1011.66 1010.84 1010.07 1009.40 1008.86 1008.50 1008.32 1008.35 1008.56 1008.94 1009.46 1010.10 1010.81 1011.57 1012.36 1013.16 1013.96 1014.76 1015.56 1016.37 1017.18 1018.01 1018.84 1019.68 1020.50 1021.30 1022.07 1022.79 1023.45 1024.03 1024.54 1024.97
1019.55 1018.99 1018.40 1017.79 1017.15 1016.50 1015.82 1015.12 1014.37 1013.59 1012.76 1011.90 1011.04 1010.19 1009.40 1008.69 1008.13 1007.72 1007.49 1007.47 1007.64 1008.00 1008.53 1009.20 1009.97 1010.82 1011.72 1012.64 1013.57 1014.49 1015.40 1016.29 1017.17 1018.04 1018.90 1019.75 1020.58 1021.40 1022.19 1022.94 1023.63 1024.25 1024.79 1025.24
1019.34 1018.70 1018.05 1017.41 1016.76 1016.10 1015.43 1014.73 1014.00 1013.22 1012.40 1011.53 1010.64 1009.76 1008.92 1008.15 1007.51 1007.02 1006.72 1006.63 1006.75 1007.09 1007.62 1008.33 1009.18 1010.13 1011.14 1012.19 1013.25 1014.29 1015.29 1016.26 1017.19 1018.09 1018.96 1019.81 1020.65 1021.47 1022.27 1023.02 1023.73 1024.37 1024.94 1025.41
1019.14 1018.42 1017.71 1017.03 1016.37 1015.73 1015.09 1014.43 1013.74 1013.00 1012.20 1011.34 1010.44 1009.52 1008.61 1007.77 1007.04 1006.46 1006.07 1005.89 1005.96 1006.27 1006.81 1007.55 1008.47 1009.51 1010.64 1011.80 1012.97 1014.10 1015.19 1016.22 1017.19 1018.11 1018.98 1019.83 1020.66 1021.48 1022.27 1023.04 1023.76 1024.42 1025.00 1025.49
1018.96 1018.15 1017.38 1016.67 1016.01 1015.39 1014.80 1014.20 1013.56 1012.87 1012.11 1011.27 1010.36 1009.41 1008.45 1007.53 1006.71 1006.04 1005.56 1005.31 1005.32 1005.60 1006.13 1006.90 1007.87 1008.98 1010.19 1011.44 1012.68 1013.89 1015.04 1016.10 1017.10 1018.03 1018.91 1019.76 1020.58 1021.40 1022.20 1022.97 1023.70 1024.37 1024.97 1025.48
1018.77 1017.89 1017.07 1016.33 1015.67 1015.08 1014.53 1013.98 1013.41 1012.77 1012.05 1011.23 1010.33 1009.36 1008.36 1007.39 1006.50 1005.75 1005.20 1004.89 1004.85 1005.10 1005.63 1006.41 1007.40 1008.54 1009.79 1011.08 1012.37 1013.61 1014.79 1015.87 1016.88 1017.82 1018.71 1019.56 1020.39 1021.22 1022.03 1022.81 1023.56 1024.25 1024.87 1025.40
1018.54 1017.61 1016.76 1016.00 1015.34 1014.77 1014.25 1013.74 1013.22 1012.62 1011.94 1011.15 1010.26 1009.29 1008.27 1007.27 1006.35 1005.56 1004.97 1004.63 1004.56 1004.79 1005.30 1006.07 1007.05 1008.19 1009.44 1010.73 1012.01 1013.25 1014.42 1015.51 1016.53 1017.47 1018.37 1019.24 1020.10 1020.94 1021.78 1022.59 1023.36 1024.08 1024.72 1025.26
1018.21 1017.26 1016.40 1015.64 1014.99 1014.43 1013.93 1013.45 1012.95 1012.38 1011.72 1010.95 1010.08 1009.12 1008.12 1007.13 1006.21 1005.43 1004.84 1004.49 1004.42 1004.63 1005.13 1005.87 1006.82 1007.93 1009.13 1010.38 1011.63 1012.84 1013.98 1015.05 1016.07 1017.02 1017.94 1018.84 1019.73 1020.61 1021.48 1022.33 1023.13 1023.87 1024.52 1025.08
1017.74 1016.81 1015.97 1015.23 1014.59 1014.04 1013.55 1013.07 1012.57 1012.01 1011.36 1010.61 1009.76 1008.83 1007.87 1006.92 1006.05 1005.32 1004.77 1004.46 1004.41 1004.62 1005.10 1005.81 1006.72 1007.76 1008.89 1010.07 1011.25 1012.40 1013.51 1014.56 1015.57 1016.54 1017.49 1018.43 1019.36 1020.29 1021.20 1022.08 1022.90 1023.66 1024.33 1024.90
Thickness
5733 5719 5710 5714 5717 5716 5712 5705 5701 5707 5717 5710 5704 5704 5709 5712 5710 5708 5706 5706 5706 5708 5710 5711 5711 5710 5708 5706 5704 5702 5701 5701 5700 5699 5698 5697 5696 5697 5697 5698 5698 5699 5699 5699
5717 5713 5722 5726 5723 5718 5711 5704 5702 5708 5716 5710 5702 5702 5710 5711 5711 5710 5708 5706 5706 5706 5707 5708 5708 5707 5705 5703 5702 5700 5699 5698 5698 5698 5697 5696 5695 5694 5694 5695 5696 5696 5696 5696
5713 5719 5730 5724 5717 5712 5709 5704 5704 5704 5708 5708 5703 5697 5703 5710 5712 5713 5712 5710 5709 5707 5706 5706 5706 5704 5703 5701 5700 5701 5699 5698 5697 5696 5695 5694 5693 5692 5691 5691 5692 5693 5693 5694
5715 5724 5725 5719 5715 5713 5703 5714 5711 5706 5696 5687 5694 5677 5695 5702 5705 5709 5710 5709 5709 5709 5708 5707 5706 5704 5702 5701 5701 5700 5699 5698 5696 5696 5694 5692 5689 5687 5688 5688 5689 5690 5691 5691
5713 5721 5719 5714 5717 5718 5711 5717 5711 5704 5695 5685 5687 5678 5687 5699 5700 5707 5711 5711 5711 5711 5710 5708 5707 5706 5704 5702 5700 5700 5698 5697 5696 5695 5693 5691 5689 5687 5687 5687 5687 5687 5688 5688
5717 5726 5725 5722 5725 5723 5718 5709 5701 5690 5683 5673 5683 5677 5680 5693 5703 5709 5713 5715 5714 5713 5712 5709 5708 5706 5703 5702 5700 5699 5697 5696 5694 5693 5692 5690 5688 5686 5685 5684 5684 5684 5685 5685
5707 5716 5724 5727 5717 5715 5710 5690 5672 5669 5662 5667 5684 5679 5685 5708 5714 5715 5715 5716 5717 5714 5711 5708 5706 5704 5702 5701 5699 5698 5696 5694 5693 5692 5691 5689 5688 5686 5685 5684 5683 5683 5682 5682
5691 5693 5715 5721 5716 5706 5702 5693 5671 5661 5658 5664 5679 5677 5696 5717 5721 5722 5720 5719 5717 5714 5711 5709 5708 5706 5704 5702 5699 5697 5695 5693 5693 5691 5690 5689 5688 5686 5685 5684 5683 5682 5681 5681
5689 5692 5716 5722 5723 5713 5697 5689 5690 5672 5668 5662 5670 5685 5702 5718 5718 5720 5719 5718 5715 5714 5712 5710 5708 5706 5704 5702 5700 5698 5696 5694 5692 5691 5690 5688 5687 5686 5685 5684 5683 5682 5681 5681
5699 5692 5707 5716 5718 5713 5707 5694 5678 5670 5660 5655 5668 5675 5683 5704 5710 5714 5715 5715 5716 5714 5712 5710 5708 5707 5705 5704 5701 5699 5697 5694 5692 5691 5689 5688 5686 5685 5684 5683 5682 5681 5681 5679
5701 5689 5694 5703 5703 5699 5697 5691 5681 5669 5667 5656 5656 5671 5704 5707 5712 5713 5715 5716 5717 5715 5712 5711 5709 5707 5705 5703 5701 5698 5696 5693 5692 5690 5688 5687 5685 5684 5683 5682 5681 5680 5679 5678
5693 5681 5677 5691 5707 5711 5705 5696 5684 5672 5666 5662 5659 5673 5715 5715 5716 5716 5716 5718 5718 5717 5714 5712 5709 5706 5704 5701 5699 5697 5695 5693 5692 5690 5688 5686 5685 5683 5682 5681 5680 5680 5678 5677
5690 5677 5667 5674 5686 5697 5697 5695 5689 5679 5667 5659 5658 5678 5714 5714 5716 5717 5717 5717 5716 5715 5713 5710 5708 5705 5703 5701 5699 5697 5695 5693 5692 5690 5687 5685 5684 5683 5682 5680 5679 5678 5677 5675
5692 5675 5669 5667 5674 5685 5688 5691 5688 5680 5666 5663 5670 5684 5703 5709 5711 5713 5715 5716 5715 5713 5711 5709 5706 5704 5703 5701 5699 5697 5695 5693 5691 5689 5687 5685 5684 5683 5682 5680 5679 5677 5676 5674
5683 5670 5674 5677 5685 5687 5688 5690 5688 5684 5679 5673 5681 5687 5701 5707 5710 5713 5714 5714 5712 5711 5710 5708 5706 5704 5702 5700 5698 5696 5695 5693 5691 5688 5686 5685 5684 5683 5681 5679 5678 5676 5674 5673
5671 5667 5668 5670 5679 5682 5683 5688 5689 5688 5687 5685 5688 5692 5708 5711 5710 5710 5711 5711 5710 5710 5710 5709 5707 5704 5702 5700 5698 5696 5694 5692 5690 5688 5686 5684 5683 5681 5680 5678 5676 5674 5673 5671
5659 5659 5655 5653 5667 5672 5669 5686 5688 5689 5692 5690 5686 5698 5707 5706 5708 5709 5710 5710 5709 5709 5709 5708 5706 5705 5703 5701 5699 5697 5695 5693 5690 5687 5685 5683 5682 5680 5678 5677 5674 5672 5671 5669
5653 5649 5643 5644 5653 5647 5676 5695 5696 5692 5694 5696 5699 5703 5705 5707 5710 5711 5712 5711 5710 5710 5709 5708 5706 5705 5704 5702 5700 5698 5695 5692 5689 5686 5684 5682 5680 5678 5676 5674 5672 5670 5669 5667
5653 5645 5635 5633 5637 5651 5673 5688 5690 5686 5687 5697 5696 5700 5703 5706 5706 5705 5711 5711 5711 5711 5710 5709 5708 5706 5703 5701 5699 5696 5692 5690 5688 5685 5683 5681 5679 5677 5674 5672 5670 5669 5667 5665
5644 5642 5633 5628 5633 5639 5668 5690 5695 5688 5678 5696 5696 5696 5697 5697 5687 5695 5707 5709 5709 5709 5708 5707 5706 5704 5701 5699 5697 5693 5690 5687 5686 5685 5683 5681 5678 5675 5673 5671 5669 5667 5665 5663
5630 5627 5625 5624 5628 5644 5669 5683 5686 5668 5676 5694 5695 5694 5693 5691 5693 5700 5704 5705 5706 5706 5705 5704 5702 5699 5698 5696 5694 5691 5688 5686 5686 5684 5682 5679 5676 5674 5671 5668 5666 5664 5662 5659
5626 5622 5620 5620 5623 5639 5670 5672 5669 5674 5686 5690 5691 5691 5691 5692 5695 5697 5698 5700 5700 5700 5700 5699 5697 5695 5694 5692 5691 5688 5686 5686 5684 5681 5679 5676 5674 5672 5669 5665 5663 5660 5658 5655
5623 5629 5629 5633 5641 5656 5664 5668 5675 5678 5680 5684 5686 5688 5688 5688 5689 5691 5691 5692 5693 5694 5693 5693 5691 5690 5688 5688 5687 5684 5683 5682 5680 5677 5674 5672 5670 5668 5666 5662 5659 5656 5654 5651
5620 5626 5625 5627 5640 5650 5658 5664 5669 5673 5675 5679 5681 5682 5683 5682 5683 5684 5684 5684 5685 5686 5686 5686 5685 5683 5682 5682 5682 5681 5680 5678 5676 5673 5671 5668 5665 5663 5661 5659 5656 5653 5650 5648
5615 5616 5617 5622 5634 5641 5651 5656 5660 5665 5669 5672 5673 5675 5676 5677 5676 5677 5677 5677 5678 5679 5680 5680 5679 5678 5677 5677 5676 5676 5675 5673 5670 5668 5666 5664 5662 5659 5656 5654 5652 5650 5649 5648
5608 5611 5613 5620 5631 5633 5640 5648 5652 5655 5659 5662 5664 5664 5667 5669 5669 5670 5669 5670 5671 5672 5672 5672 5672 5671 5671 5671 5671 5671 5670 5668 5665 5662 5660 5658 5656 5653 5651 5648 5645 5645 5644 5644